Flag for Switzerland Weather past 2 weeks in Martigny, Valais, Switzerland

Now
67 °F

Scattered clouds.


Feels Like: 67 °F
Forecast: 52 / 63 °F
Wind: 17 mph from West

Location: Sion

Current Time: Sep 4, 2015 at 9:30:28 PM

Latest Report: Sep 4, 2015 at 8:00 PM


Visibility: 16 mi

Pressure: 29.85 "Hg

Humidity: 43%

Dew point: 44 °F

Location of MartignyLocation

Historic Weather in Martigny — Graph

°F

Martigny temperature yesterday

Maximum temperature yesterday: 71 °F (at 3:00 PM)
Minimum temperature yesterday: 56 °F (at 7:00 AM)
Average temperature yesterday: 64 °F

Past Weeks' High & Low Weather Summary

 TemperatureHumidityPressure
High90 °F (Aug 30, 3:00 PM)98% (Aug 25, 5:00 AM)30.26 "Hg (Aug 25, 5:00 AM)
Low52 °F (Aug 25, 7:00 AM)20% (Aug 31, 4:00 PM)29.71 "Hg (Aug 24, 3:00 PM)
Average68 °F62%29.99 "Hg
* Reported Aug 20 8:00 PM — Sep 4 8:00 PM, Martigny, Weather by CustomWeather, © 2015

Note: Actual official high and low records may vary slightly from our data, if they occured in-between our weather recording intervals... More about our weather records

Advertising

Martigny weather history for previous 24 hours

 ConditionsComfort  
Time TempWeatherWind HumidityBarometerVisibility
8:00 PM
Fri, Sep 4
67 °FScattered clouds.17 mph43%29.85 "Hg16 mi
7:00 PM69 °FMild.18 mph43%29.83 "HgN/A
6:00 PM72 °FMild.18 mph38%29.81 "HgN/A
5:00 PM73 °FScattered clouds.16 mph37%29.81 "Hg16 mi
4:00 PM74 °FMild.15 mph36%29.81 "HgN/A
3:00 PM74 °FMild.10 mph33%29.85 "HgN/A
2:00 PM72 °FMild.8 mph34%29.89 "HgN/A
1:00 PM71 °FMild.8 mph42%29.93 "HgN/A
12:00 PM66 °FMild.5 mph48%29.97 "HgN/A
11:00 AM65 °FPartly sunny.2 mph54%29.99 "Hg12 mi
10:00 AM61 °FCool.3 mph64%30.01 "HgN/A
9:00 AM58 °FCool.3 mph71%30.03 "HgN/A
8:00 AM54 °FScattered clouds.1 mph80%30.04 "Hg16 mi
7:00 AM54 °FCool.No wind81%30.03 "HgN/A
6:00 AM55 °FCool.3 mph78%30.01 "HgN/A
5:00 AM54 °FCool.3 mph81%30.02 "HgN/A
4:00 AM55 °FCool.2 mph79%30.02 "HgN/A
3:00 AM56 °FCool.2 mph81%30.01 "HgN/A
2:00 AM59 °FCool.3 mph67%30.00 "HgN/A
1:00 AM61 °FCool.8 mph62%29.99 "HgN/A
12:00 AM62 °FCool.12 mph61%29.97 "HgN/A
11:00 PM
Thu, Sep 3
63 °FPassing clouds.3 mph56%29.96 "Hg11 mi
10:00 PM63 °FMild.5 mph54%29.95 "HgN/A
9:00 PM66 °FMild.13 mph45%29.93 "HgN/A
Weather by CustomWeather, © 2015

See weather overviewHow to use our weather pages